Tracking 21076 objects as of 10-Aug-2020
HD Live streaming from Space Station
objects crossing your sky now
Track the most recent launched group of Starlink satellites

COSMOS 1249 COOLANT

Track COSMOS 1249 COOLANT now!
10-day predictions


NORAD ID: 26511
Int'l Code: 1981-021N
Perigee: 887.7 km
Apogee: 979.1 km
Inclination: 65.0 °
Period: 103.5 minutes
Semi major axis: 7304 km
RCS: 0.0065 m2 (small)
Launch date: March 5, 1981
Source: Commonwealth of Independent States (former USSR) (CIS)
Launch site: TYURATAM MISSILE AND SPACE COMPLEX (TTMTR)

Note: This is SATELLITE DEBRIS
aabbcc
Your satellite tracking list
Your tracking list is empty




NASA's NSSDC Master Catalog

Two Line Element Set (TLE):
1 26511U 81021N   20222.31011898 -.00000036  00000-0  42722-4 0  9997
2 26511  64.9597 173.9506 0062543 244.6866 191.2357 13.90683284 42956
Source of the keplerian elements: AFSPC